Regional Weather Roundup
Issued by NWS

Home | Current Version | Previous Version | Graphics & Text | Print | Product List | Glossary On
Versions: 1 2 3 4 5 6 7 8 9 10 11 12 13 14 15 16 17 18 19 20 21 22 23 24 25 26 27 28 29 30 31 32 33 34 35 36 37 38 39 40 41 42 43 44 45 46 47 48 49 50
000
ASUS43 KIND 221159
RWRIN

WEATHER ROUNDUP FOR INDIANA
NATIONAL WEATHER SERVICE INDIANAPOLIS IN
700 AM EST WED FEB 22 2017

NOTE: "FAIR" INDICATES FEW OR NO CLOUDS BELOW 12,000 FEET WITH NO
SIGNIFICANT WEATHER AND/OR OBSTRUCTIONS TO VISIBILITY.

* - STATION DOES NOT REPORT WEATHER SUCH AS PRECIPITATION OR FOG.

+ - STATION NOT QUALITY CONTROLLED BY THE NATIONAL WEATHER SERVICE.
    USE DATA WITH CAUTION...ESPECIALLY DEWPOINT AND RELATIVE
    HUMIDITY OBSERVATIONS.

INZ001>003-010>013-019-020-221300-
NORTHWEST INDIANA

CITY           SKY/WX    TMP DP  RH WIND       PRES   REMARKS
GARY /AIRPORT/ CLOUDY    55  52  88 S7        29.85S FOG
KNOX *+        CLOUDY    50  39  66 SW6       29.87S
MICHIGAN CITY+ CLOUDY    52  52 100 S8        29.86R
RENSSELAER +   FOG       46  46 100 S3        29.87F VSB 1/4

$$

LMZ046-743>745-221300-
SOUTHERN LAKE MICHIGAN

STATION/POSITION TIME  TEMP    WIND        PRES    WAVE
                       AIR SEA DIR/SP/G            HT
                 (UTC) (F)     (DEG/KT/KT) (MB)    (FT)
BURNS HARBOR     1140   54     180/ 10/ 14 1011.2S
MICHIGAN CITY    1130   53     180/  7/  8   N/A

$$

INZ004-005-014>016-021>024-221300-
NORTH CENTRAL INDIANA

CITY           SKY/WX    TMP DP  RH WIND       PRES   REMARKS
ELKHART        CLEAR     50  48  93 SW5       29.86  FOG
GOSHEN         PTCLDY    51  48  89 S7        29.87R FOG
6HR MIN TEMP:  47; 6HR MAX TEMP:  53;

PERU/GRISSOM   FOG       50  50 100 S3        29.87F VSB 1
SOUTH BEND     CLEAR     49  48  97 SW6       29.87R FOG
6HR MIN TEMP:  41; 6HR MAX TEMP:  50;

WARSAW +       MOCLDY    52  52 100 SW3       29.87F FOG

$$

INZ006>009-017-018-025>027-221300-
NORTHEAST INDIANA

CITY           SKY/WX    TMP DP  RH WIND       PRES   REMARKS
ANGOLA *+      MOCLDY    52  52 100 SW5       29.88R
AUBURN +       CLOUDY    54  50  87 S3        29.89S FOG
FORT WAYNE     CLOUDY    52  50  93 S6        29.90S FOG
6HR MIN TEMP:  48; 6HR MAX TEMP:  54;

KENDALLVILLE + MOCLDY    52  51  99 S7        29.88S FOG

$$

INZ028-029-035-036-043>045-051>053-221300-
WEST CENTRAL INDIANA

CITY           SKY/WX    TMP DP  RH WIND       PRES   REMARKS
GREENCASTLE +  FOG       50  50 100 CALM      29.89F VSB 1/4
LAFAYETTE      FOG       49  49 100 CALM      29.88S VSB 1/4
6HR MIN TEMP:  47; 6HR MAX TEMP:  55;

TERRE HAUTE    FOG       45  44  97 CALM      29.89S VSB 1/4
6HR MIN TEMP:  44; 6HR MAX TEMP:  53;


$$

INZ030>032-037>040-046>048-054>057-064-065-221300-
CENTRAL INDIANA

CITY           SKY/WX    TMP DP  RH WIND       PRES   REMARKS
COLUMBUS       CLOUDY    54  54 100 CALM      29.91
FRANKFORT +    FOG       47  46  98 S5        29.90S VSB<1/4
6HR MIN TEMP:  46; 6HR MAX TEMP:  55;

GREENWOOD *+   CLOUDY    54  54 100 CALM      29.90S
6HR MIN TEMP:  54; 6HR MAX TEMP:  56;

INDIANAPOLIS   CLOUDY    55  53  93 S6        29.89F
6HR MIN TEMP:  52; 6HR MAX TEMP:  56;

-EAGLE CREEK   FOG       48  46  93 CALM      29.89S VSB 1/4
6HR MIN TEMP:  48; 6HR MAX TEMP:  56;

KOKOMO +       FOG       51  51 100 S5        29.89F VSB 1/4
6HR MIN TEMP:  47; 6HR MAX TEMP:  53;

MT COMFORT *+  CLOUDY    54  54 100 S6        29.90F
SHELBYVILLE    CLOUDY    56  53  90 S7        29.90R FOG
6HR MIN TEMP:  56; 6HR MAX TEMP:  57;


$$

INZ033-034-041-042-049-050-058-059-221300-
EAST CENTRAL INDIANA

CITY           SKY/WX    TMP DP  RH WIND       PRES   REMARKS
MUNCIE         CLOUDY    57  54  89 SW6       29.90S
6HR MIN TEMP:  56; 6HR MAX TEMP:  58;


$$

INZ060-061-067>069-081>083-085>088-221300-
SOUTHWEST INDIANA

CITY           SKY/WX    TMP DP  RH WIND       PRES   REMARKS
EVANSVILLE     MOCLDY    55  53  93 CALM      29.90S FOG
6HR MIN TEMP:  53; 6HR MAX TEMP:  60;

HUNTINGBURG *+ CLOUDY    55  55 100 SE7       29.91S
6HR MIN TEMP:  55; 6HR MAX TEMP:  59;


$$

INZ062-063-066-070>080-084-089>092-221300-
SOUTH CENTRAL AND SOUTHEAST INDIANA

CITY           SKY/WX    TMP DP  RH WIND       PRES   REMARKS
BLOOMINGTON    CLOUDY    52  50  93 SE3       29.89F FOG
6HR MIN TEMP:  52; 6HR MAX TEMP:  56;

MADISON *+     CLOUDY    55  54  94 S6        29.94R
SEYMOUR +      CLOUDY    55  55 100 S3        29.91  FOG

$$





USA.gov is the U.S. government's official web portal to all federal, state and local government web resources and services.